EW8974 Weather Reports


Display with metric or nautical units.
time (UTC)temp
F
wind
direction
speed
MPH
gust
MPH
rain 1hr
in
rain 24hr
in
rain mn
in
humidity
%
barometer
mb
20260831191043 99 251 2.0 6.0 0.00 0.00 0.00 39 1009.2
20260831190546 98 232 2.0 5.0 0.00 0.00 0.00 38 1009.3
20260831190047 98 224 0.0 3.0 0.00 0.00 0.00 39 1009.3
20260831185542 98 171 1.0 3.0 0.00 0.00 0.00 38 1009.3
20260831185042 99 219 0.0 7.0 0.00 0.00 0.00 37 1009.3
20260831184552 99 308 1.0 7.0 0.00 0.00 0.00 39 1009.3
20260831184041 99 264 1.0 8.0 0.00 0.00 0.00 38 1009.6
20260831183540 98 219 2.0 8.0 0.00 0.00 0.00 39 1009.6
20260831183040 98 94 0.0 8.0 0.00 0.00 0.00 38 1009.6
20260831182540 99 283 1.0 8.0 0.00 0.00 0.00 39 1009.8
20260831182040 99 222 2.0 8.0 0.00 0.00 0.00 40 1009.8
20260831181544 98 57 0.0 3.0 0.00 0.00 0.00 39 1009.7
20260831181037 97 348 0.0 7.0 0.00 0.00 0.00 40 1010.0
20260831180536 97 197 1.0 9.0 0.00 0.00 0.00 41 1010.2
20260831180036 97 195 4.0 9.0 0.00 0.00 0.00 40 1010.2
20260831175540 97 169 3.0 10.0 0.00 0.00 0.00 42 1010.3
20260831175036 97 163 2.0 10.0 0.00 0.00 0.00 40 1010.3
20260831174541 97 234 2.0 10.0 0.00 0.00 0.00 41 1010.5
20260831174035 97 200 3.0 8.0 0.00 0.00 0.00 40 1010.5
20260831173534 97 217 1.0 7.0 0.00 0.00 0.00 43 1010.6
20260831173033 97 238 2.0 7.0 0.00 0.00 0.00 42 1010.6
20260831172532 96 235 0.0 5.0 0.00 0.00 0.00 44 1010.5
20260831172032 95 233 2.0 7.0 0.00 0.00 0.00 44 1010.6
20260831171534 95 232 2.0 7.0 0.00 0.00 0.00 44 1010.8
20260831171030 95 6 1.0 8.0 0.00 0.00 0.00 45 1010.8
20260831170529 95 214 3.0 8.0 0.00 0.00 0.00 45 1010.8
20260831170026 95 330 1.0 6.0 0.00 0.00 0.00 47 1010.9
20260831165525 94 134 2.0 6.0 0.00 0.00 0.00 46 1010.9
20260831165024 94 203 2.0 6.0 0.00 0.00 0.00 47 1011.0
20260831164522 94 278 0.0 4.0 0.00 0.00 0.00 48 1010.9
20260831164022 93 210 0.0 4.0 0.00 0.00 0.00 46 1010.9
20260831163520 93 240 1.0 7.0 0.00 0.00 0.00 48 1011.0
20260831163028 92 231 2.0 8.0 0.00 0.00 0.00 47 1011.0
20260831162519 92 325 2.0 8.0 0.00 0.00 0.00 48 1010.9
20260831162016 92 308 2.0 8.0 0.00 0.00 0.00 50 1010.8
20260831161514 91 244 2.0 8.0 0.00 0.00 0.00 50 1010.9
20260831161013 91 314 2.0 8.0 0.00 0.00 0.00 50 1011.0
20260831160512 90 236 2.0 7.0 0.00 0.00 0.00 50 1011.0
20260831160011 90 224 1.0 7.0 0.00 0.00 0.00 51 1011.0
20260831155510 89 113 2.0 7.0 0.00 0.00 0.00 53 1011.0
20260831155011 89 210 3.0 7.0 0.00 0.00 0.00 52 1011.1
20260831154508 89 232 0.0 7.0 0.00 0.00 0.00 55 1011.1
20260831154007 88 197 0.0 7.0 0.00 0.00 0.00 56 1011.0
20260831153505 88 24 1.0 6.0 0.00 0.00 0.00 58 1011.0
20260831153007 87 218 2.0 6.0 0.00 0.00 0.00 58 1011.0
20260831152503 87 253 1.0 11.0 0.00 0.00 0.00 58 1010.9
20260831152101 86 287 2.0 11.0 0.00 0.00 0.00 61 1010.9
20260831151603 86 180 1.0 7.0 0.00 0.00 0.00 60 1010.9
20260831151059 86 278 2.0 7.0 0.00 0.00 0.00 62 1010.9
20260831150601 85 236 2.0 8.0 0.00 0.00 0.00 64 1010.9
20260831150057 84 184 3.0 8.0 0.00 0.00 0.00 65 1010.7
20260831145558 84 297 2.0 6.0 0.00 0.00 0.00 65 1010.8
20260831145057 84 319 2.0 9.0 0.00 0.00 0.00 68 1010.8
20260831144630 83 236 4.0 9.0 0.00 0.00 0.00 67 1010.9
20260831144053 83 238 2.0 9.0 0.00 0.00 0.00 68 1010.8
20260831143554 83 241 2.0 6.0 0.00 0.00 0.00 69 1010.8
20260831143052 83 262 2.0 6.0 0.00 0.00 0.00 69 1010.8
20260831142553 83 307 2.0 7.0 0.00 0.00 0.00 69 1010.9
20260831142049 82 314 1.0 8.0 0.00 0.00 0.00 70 1010.8
20260831141547 82 191 2.0 10.0 0.00 0.00 0.00 70 1010.7
20260831141047 82 262 3.0 8.0 0.00 0.00 0.00 71 1010.6
20260831140546 81 301 2.0 8.0 0.00 0.00 0.00 72 1010.7
20260831140046 81 326 3.0 8.0 0.00 0.00 0.00 72 1010.7
20260831135546 80 340 1.0 8.0 0.00 0.00 0.00 74 1010.6
20260831135045 80 249 2.0 6.0 0.00 0.00 0.00 75 1010.5
20260831134545 80 259 1.0 8.0 0.00 0.00 0.00 76 1010.4
20260831134042 79 268 1.0 8.0 0.00 0.00 0.00 77 1010.4
20260831133542 79 221 1.0 6.0 0.00 0.00 0.00 78 1010.3
20260831133048 78 314 1.0 6.0 0.00 0.00 0.00 79 1010.4
20260831132542 78 160 1.0 6.0 0.00 0.00 0.00 81 1010.3
20260831132041 77 242 0.0 4.0 0.00 0.00 0.00 81 1010.1
20260831131541 77 286 1.0 4.0 0.00 0.00 0.00 81 1010.0
20260831131040 77 201 0.0 4.0 0.00 0.00 0.00 81 1010.1
20260831130540 77 245 0.0 2.0 0.00 0.00 0.00 81 1010.1
20260831130039 77 226 0.0 4.0 0.00 0.00 0.00 81 1009.9
20260831125539 77 226 0.0 4.0 0.00 0.00 0.00 81 1009.9
20260831125041 77 273 0.0 3.0 0.00 0.00 0.00 81 1009.9
20260831124539 77 243 0.0 3.0 0.00 0.00 0.00 81 1009.9
20260831124038 77 222 0.0 4.0 0.00 0.00 0.00 81 1009.8
20260831123537 77 228 0.0 4.0 0.00 0.00 0.00 81 1009.7
20260831123038 76 229 1.0 3.0 0.00 0.00 0.00 81 1009.6
20260831122536 76 193 0.0 3.0 0.00 0.00 0.00 80 1009.5
20260831122037 77 231 0.0 2.0 0.00 0.00 0.00 80 1009.2
20260831121543 77 226 0.0 2.0 0.00 0.00 0.00 79 1009.3
20260831121034 77 197 0.0 5.0 0.00 0.00 0.00 79 1009.1
20260831120532 77 198 1.0 5.0 0.00 0.00 0.00 79 1009.1
20260831120038 77 250 0.0 3.0 0.00 0.00 0.00 79 1009.0
20260831115534 77 198 0.0 3.0 0.00 0.00 0.00 79 1008.9
20260831115036 77 332 0.0 3.0 0.00 0.00 0.00 79 1008.8
20260831114547 77 227 0.0 3.0 0.00 0.00 0.00 78 1008.8
20260831114032 77 229 0.0 3.0 0.00 0.00 0.00 78 1008.8
20260831113532 77 200 0.0 4.0 0.00 0.00 0.00 78 1008.8
20260831113030 77 212 1.0 5.0 0.00 0.00 0.00 78 1008.8
20260831112533 77 210 1.0 5.0 0.00 0.00 0.00 78 1008.7
20260831112030 77 233 0.0 3.0 0.00 0.00 0.00 78 1008.7
20260831111529 76 230 0.0 2.0 0.00 0.00 0.00 78 1008.7
20260831111031 77 218 0.0 2.0 0.00 0.00 0.00 78 1008.7
20260831110529 77 218 0.0 2.0 0.00 0.00 0.00 78 1008.8
20260831110029 77 199 0.0 2.0 0.00 0.00 0.00 77 1008.7
20260831105530 77 230 0.0 2.0 0.00 0.00 0.00 77 1008.6
20260831105027 77 230 0.0 2.0 0.00 0.00 0.00 77 1008.6
20260831104533 77 238 0.0 3.0 0.00 0.00 0.00 76 1008.6
20260831104025 77 227 0.0 3.0 0.00 0.00 0.00 76 1008.5
20260831103525 78 210 0.0 3.0 0.00 0.00 0.00 76 1008.6
20260831103025 78 174 0.0 3.0 0.00 0.00 0.00 76 1008.6
20260831102528 78 215 0.0 3.0 0.00 0.00 0.00 76 1008.6
20260831102024 78 198 0.0 3.0 0.00 0.00 0.00 76 1008.6
20260831101523 78 236 0.0 2.0 0.00 0.00 0.00 75 1008.6
20260831101023 78 203 0.0 4.0 0.00 0.00 0.00 75 1008.5
20260831100523 78 203 0.0 6.0 0.00 0.00 0.00 75 1008.5
20260831100023 79 195 0.0 6.0 0.00 0.00 0.00 74 1008.5
20260831095524 79 183 0.0 2.0 0.00 0.00 0.00 74 1008.5
20260831095021 79 250 0.0 3.0 0.00 0.00 0.00 73 1008.5
20260831094521 79 250 0.0 3.0 0.00 0.00 0.00 73 1008.5
20260831094021 80 232 0.0 5.0 0.00 0.00 0.00 72 1008.3
20260831093526 80 263 1.0 5.0 0.00 0.00 0.00 72 1008.4
20260831093022 80 237 1.0 6.0 0.00 0.00 0.00 72 1008.4
20260831092522 80 193 2.0 6.0 0.00 0.00 0.00 72 1008.3
20260831092023 80 187 0.0 7.0 0.00 0.00 0.00 71 1008.2
20260831091519 80 231 2.0 7.0 0.00 0.00 0.00 71 1008.2
20260831091022 80 250 1.0 5.0 0.00 0.00 0.00 71 1008.2
20260831090518 80 236 0.0 3.0 0.00 0.00 0.00 71 1008.3
20260831090018 81 186 0.0 5.0 0.00 0.00 0.00 70 1008.1
20260831085519 81 257 0.0 6.0 0.00 0.00 0.00 70 1008.2
20260831085118 81 232 1.0 6.0 0.00 0.00 0.00 70 1008.1
20260831084517 81 220 2.0 6.0 0.00 0.00 0.00 69 1008.2
20260831084016 81 176 1.0 9.0 0.00 0.00 0.00 69 1008.2
20260831083516 81 182 2.0 9.0 0.00 0.00 0.00 69 1008.1
20260831083016 81 266 1.0 6.0 0.00 0.00 0.00 68 1008.1
20260831082514 81 250 2.0 6.0 0.00 0.00 0.00 68 1008.0
20260831082012 81 266 2.0 6.0 0.00 0.00 0.00 68 1008.0
20260831081512 81 228 2.0 5.0 0.00 0.00 0.00 67 1008.1
20260831081013 81 179 1.0 7.0 0.00 0.00 0.00 67 1008.1
20260831080509 81 276 2.0 6.0 0.00 0.00 0.00 67 1008.0
20260831080012 81 239 3.0 7.0 0.00 0.00 0.00 66 1008.0
20260831075513 81 314 2.0 7.0 0.00 0.00 0.00 67 1008.0
20260831075008 81 254 1.0 7.0 0.00 0.00 0.00 66 1008.0
20260831074508 81 240 1.0 7.0 0.00 0.00 0.00 65 1008.0
20260831074009 81 215 2.0 5.0 0.00 0.00 0.00 65 1008.0
20260831073508 81 220 2.0 5.0 0.00 0.00 0.00 64 1008.0
20260831073008 81 274 1.0 4.0 0.00 0.00 0.00 64 1008.0
20260831072510 81 204 1.0 4.0 0.00 0.00 0.00 64 1007.9
20260831072006 82 182 1.0 4.0 0.00 0.00 0.00 63 1008.0
20260831071515 82 245 2.0 6.0 0.00 0.00 0.00 62 1008.0
20260831071006 82 235 2.0 8.0 0.00 0.00 0.00 62 1008.0
20260831070506 82 191 3.0 8.0 0.00 0.00 0.00 61 1008.1
20260831070006 82 256 3.0 8.0 0.00 0.00 0.00 61 1008.2
20260831065506 82 229 2.0 6.0 0.00 0.00 0.00 60 1008.2
20260831065005 82 251 1.0 8.0 0.00 0.00 0.00 60 1008.2
20260831064605 82 204 2.0 7.0 0.00 0.00 0.00 59 1008.1
20260831064003 82 236 2.0 6.0 0.00 0.00 0.00 59 1008.1
20260831063502 81 210 1.0 6.0 0.00 0.00 0.00 59 1008.1
20260831063001 81 174 1.0 6.0 0.00 0.00 0.00 59 1008.1
20260831062602 80 153 1.0 6.0 0.00 0.00 0.00 60 1008.1
20260831062059 79 208 1.0 4.0 0.00 0.00 0.00 61 1008.1
20260831061558 78 235 0.0 2.0 0.00 0.00 0.00 63 1008.1
20260831061058 78 229 0.0 1.0 0.00 0.00 0.00 64 1008.2
20260831060557 78 229 0.0 0.0 0.00 0.00 0.00 63 1008.1
20260831055554 78 229 0.0 0.0 0.00 0.00 0.00 62 1008.2
20260831055054 79 229 0.0 1.0 0.00 0.00 0.00 62 1008.1
20260831054555 79 229 0.0 1.0 0.00 0.00 0.00 61 1008.0
20260831054053 79 229 0.0 2.0 0.00 0.00 0.00 61 1008.1
20260831053553 79 229 0.0 2.0 0.00 0.00 0.00 61 1008.1
20260831053107 79 247 0.0 2.0 0.00 0.00 0.00 62 1008.1
20260831052552 79 247 0.0 2.0 0.00 0.00 0.00 62 1008.1
20260831052050 79 228 0.0 2.0 0.00 0.00 0.00 62 1008.1
20260831051549 79 228 0.0 2.0 0.00 0.00 0.00 63 1008.0
20260831051049 78 290 0.0 0.0 0.00 0.00 0.00 63 1007.9
20260831050548 78 290 0.0 1.0 0.00 0.00 0.00 63 1007.9
20260831050106 78 290 0.0 1.0 0.00 0.00 0.00 63 1007.8
20260831045549 79 290 0.0 0.0 0.00 0.00 0.00 63 1007.8
20260831045050 79 290 0.0 0.0 0.00 0.00 0.00 62 1007.8
20260831044549 79 290 0.0 0.0 0.00 0.00 0.00 61 1007.7
20260831044047 79 290 0.0 0.0 0.00 0.00 0.00 61 1007.8
20260831043548 79 290 0.0 0.0 0.00 0.00 0.00 61 1007.8
20260831043052 79 290 0.0 0.0 0.00 0.00 0.00 61 1007.8
20260831042547 79 290 0.0 0.0 0.00 0.00 0.00 60 1007.8
20260831042047 80 290 0.0 1.0 0.00 0.00 0.00 61 1007.9
20260831041556 79 290 0.0 1.0 0.00 0.00 0.00 61 1007.8
20260831041047 79 290 0.0 0.0 0.00 0.00 0.00 61 1008.0
20260831040546 80 290 0.0 0.0 0.00 0.00 0.00 61 1007.9
20260831040046 80 290 0.0 0.0 0.00 0.00 0.00 59 1007.7
20260831035545 80 290 0.0 0.0 0.00 0.00 0.00 59 1007.7
20260831035045 80 290 0.0 0.0 0.00 0.00 0.00 59 1007.7
20260831034546 80 290 0.0 0.0 0.00 0.00 0.00 59 1007.5
20260831034045 80 290 0.0 0.0 0.00 0.00 0.00 59 1007.5
20260831033545 80 290 0.0 0.0 0.00 0.00 0.00 59 1007.5
20260831033104 81 290 0.0 0.0 0.00 0.00 0.00 58 1007.4
20260831032545 81 290 0.0 0.0 0.00 0.00 0.00 57 1007.5
20260831032045 81 290 0.0 0.0 0.00 0.00 0.00 57 1007.3
20260831031552 81 290 0.0 0.0 0.00 0.00 0.00 57 1007.4
20260831031044 81 290 0.0 0.0 0.00 0.00 0.00 57 1007.4
20260831030544 82 290 0.0 0.0 0.00 0.00 0.00 56 1007.3
20260831030047 82 290 0.0 0.0 0.00 0.00 0.00 56 1007.4
20260831025544 82 290 0.0 0.0 0.00 0.00 0.00 55 1007.3
20260831025044 82 290 0.0 0.0 0.00 0.00 0.00 55 1007.2
20260831024544 82 290 0.0 0.0 0.00 0.00 0.00 55 1007.2
20260831024046 82 290 0.0 0.0 0.00 0.00 0.00 55 1007.1
20260831023543 83 290 0.0 0.0 0.00 0.00 0.00 54 1006.9
20260831023044 83 290 0.0 0.0 0.00 0.00 0.00 54 1006.9
20260831022543 83 290 0.0 0.0 0.00 0.00 0.00 54 1006.9
20260831022043 83 290 0.0 0.0 0.00 0.00 0.00 53 1006.8
20260831021545 84 290 0.0 0.0 0.00 0.00 0.00 53 1006.8
20260831021043 84 290 0.0 0.0 0.00 0.00 0.00 52 1006.8
20260831020543 84 290 0.0 0.0 0.00 0.00 0.00 51 1006.7
20260831020043 85 290 0.0 0.0 0.00 0.00 0.00 51 1006.6
20260831015542 85 290 0.0 0.0 0.00 0.00 0.00 51 1006.6
20260831015042 85 290 0.0 0.0 0.00 0.00 0.00 50 1006.5
20260831014542 86 290 0.0 0.0 0.00 0.00 0.00 49 1006.5
20260831014042 86 290 0.0 0.0 0.00 0.00 0.00 48 1006.2
20260831013542 87 290 0.0 0.0 0.00 0.00 0.00 48 1006.3
20260831013053 88 290 0.0 1.0 0.00 0.00 0.00 47 1006.3
20260831012542 88 290 0.0 0.0 0.00 0.00 0.00 46 1006.3
20260831012041 89 290 0.0 0.0 0.00 0.00 0.00 45 1006.2
20260831011544 90 290 0.0 0.0 0.00 0.00 0.00 44 1006.1
20260831011040 91 290 0.0 0.0 0.00 0.00 0.00 43 1006.1
20260831010540 91 290 0.0 0.0 0.00 0.00 0.00 42 1006.0
20260831010045 92 290 0.0 1.0 0.00 0.00 0.00 41 1006.0
20260831005540 93 290 0.0 1.0 0.00 0.00 0.00 40 1006.0
20260831005041 94 286 0.0 1.0 0.00 0.00 0.00 39 1005.9
20260831004544 95 148 0.0 1.0 0.00 0.00 0.00 39 1005.9
20260831004040 96 148 0.0 1.0 0.00 0.00 0.00 38 1005.9
20260831003540 97 142 0.0 2.0 0.00 0.00 0.00 36 1005.9
20260831003047 98 244 0.0 2.0 0.00 0.00 0.00 35 1005.8
20260831002539 98 246 0.0 2.0 0.00 0.00 0.00 35 1005.8
20260831002038 98 201 0.0 2.0 0.00 0.00 0.00 35 1005.9
20260831001538 99 207 0.0 3.0 0.00 0.00 0.00 34 1005.9
20260831001038 100 277 1.0 3.0 0.00 0.00 0.00 34 1006.0
20260831000538 100 195 0.0 6.0 0.00 0.00 0.00 34 1006.1
20260831000038 100 207 2.0 6.0 0.00 0.00 0.00 33 1006.0
20260830235541 101 196 2.0 5.0 0.00 0.00 0.00 32 1006.0
20260830235042 101 238 2.0 5.0 0.00 0.00 0.00 31 1006.1
20260830234545 102 243 0.0 3.0 0.00 0.00 0.00 33 1006.0
20260830234037 102 310 0.0 2.0 0.00 0.00 0.00 32 1006.0
20260830233540 102 202 0.0 4.0 0.00 0.00 0.00 32 1006.1
20260830233037 101 252 1.0 5.0 0.00 0.00 0.00 32 1006.0
20260830232537 101 193 1.0 8.0 0.00 0.00 0.00 32 1006.1
20260830232036 101 221 3.0 8.0 0.00 0.00 0.00 30 1006.0
20260830231539 103 198 1.0 4.0 0.00 0.00 0.00 30 1006.1
20260830231034 103 212 1.0 4.0 0.00 0.00 0.00 30 1006.1
20260830230533 104 223 1.0 3.0 0.00 0.00 0.00 30 1006.2
20260830230031 103 311 0.0 3.0 0.00 0.00 0.00 30 1006.2
20260830225531 102 210 1.0 4.0 0.00 0.00 0.00 32 1006.2
20260830225030 102 205 0.0 11.0 0.00 0.00 0.00 32 1006.2
20260830224530 102 171 3.0 11.0 0.00 0.00 0.00 31 1006.2
20260830224035 102 205 2.0 6.0 0.00 0.00 0.00 30 1006.1
20260830223530 102 139 1.0 5.0 0.00 0.00 0.00 32 1006.2
20260830223031 101 269 0.0 5.0 0.00 0.00 0.00 32 1006.2
20260830222528 100 290 0.0 6.0 0.00 0.00 0.00 34 1006.3
20260830222032 100 295 2.0 8.0 0.00 0.00 0.00 31 1006.4
20260830221527 102 160 2.0 8.0 0.00 0.00 0.00 30 1006.5
20260830221027 103 250 3.0 8.0 0.00 0.00 0.00 30 1006.4
20260830220526 103 357 1.0 5.0 0.00 0.00 0.00 30 1006.5
20260830220025 102 236 0.0 6.0 0.00 0.00 0.00 32 1006.4
20260830215525 101 137 1.0 8.0 0.00 0.00 0.00 33 1006.4
20260830215024 101 196 3.0 8.0 0.00 0.00 0.00 32 1006.4
20260830214524 101 195 0.0 3.0 0.00 0.00 0.00 33 1006.4
20260830214023 100 268 0.0 3.0 0.00 0.00 0.00 33 1006.4
20260830213526 99 165 0.0 7.0 0.00 0.00 0.00 34 1006.5
20260830213023 99 127 2.0 7.0 0.00 0.00 0.00 33 1006.5
20260830212522 99 277 0.0 7.0 0.00 0.00 0.00 35 1006.6
20260830212022 100 186 3.0 7.0 0.00 0.00 0.00 32 1006.7
20260830211521 102 221 2.0 6.0 0.00 0.00 0.00 32 1006.8
20260830211020 102 210 1.0 5.0 0.00 0.00 0.00 32 1006.8
20260830210521 102 224 1.0 8.0 0.00 0.00 0.00 30 1006.9
20260830210019 101 162 1.0 9.0 0.00 0.00 0.00 32 1007.0
20260830205523 101 209 3.0 11.0 0.00 0.00 0.00 31 1006.9
20260830205018 101 153 3.0 9.0 0.00 0.00 0.00 30 1007.0
20260830204518 101 240 2.0 9.0 0.00 0.00 0.00 31 1007.1
20260830204017 102 167 2.0 6.0 0.00 0.00 0.00 31 1007.3
20260830203517 101 231 2.0 10.0 0.00 0.00 0.00 31 1007.2
20260830203023 100 201 2.0 12.0 0.00 0.00 0.00 32 1007.3
20260830202517 101 231 2.0 10.0 0.00 0.00 0.00 33 1007.4
20260830202017 101 221 1.0 12.0 0.00 0.00 0.00 32 1007.4
20260830201514 101 229 5.0 11.0 0.00 0.00 0.00 31 1007.5
20260830201018 101 203 1.0 8.0 0.00 0.00 0.00 32 1007.6
20260830200512 101 236 3.0 8.0 0.00 0.00 0.00 32 1007.8
20260830200012 101 252 2.0 9.0 0.00 0.00 0.00 32 1007.7
20260830195511 101 155 3.0 11.0 0.00 0.00 0.00 31 1007.8
20260830195012 102 243 1.0 9.0 0.00 0.00 0.00 32 1007.9
20260830194510 102 193 4.0 9.0 0.00 0.00 0.00 31 1008.0
20260830194010 102 198 1.0 4.0 0.00 0.00 0.00 33 1008.1
20260830193507 101 248 1.0 4.0 0.00 0.00 0.00 33 1008.1
20260830193007 100 224 1.0 12.0 0.00 0.00 0.00 35 1008.2
20260830192508 100 259 4.0 12.0 0.00 0.00 0.00 34 1008.3
20260830192005 100 238 3.0 8.0 0.00 0.00 0.00 33 1008.3